MKA-FKI 1

导读

MKA-FKI 1卫星,由独联体(CIS)于2012年7月22日北京时间08:00发射,是一颗空间科学观测卫星,主要承担近地空间环境探测任务,助力科学家研究太阳活动对地球空间天气的影响,获取了大量有价值的空间辐射数据,为空间物理研究和航天活动安全保障提供了重要支撑,目前仍在轨稳定运行,持续传回观测数据。

Basic Information
目录编号:
38711
目录名称:
MKA-FKI 1
国际标识:
2012-039E
轨道中心:
EARTH
卫星名称:
MKA-FKI 1
卫星全名:
--
卫星状态:
在轨 (已飞行5105 天)
发射日期:
2012-07-22 UTC
国别 :
俄罗斯(独联体) (CIS)
星等 :
--
Orbit Information
数据来源 国际轨道数据 AOE轨道数据
星历时间 2026-07-14T04:40:13+0800
10小时前
查看轨道信息
2026-07-12T04:00:00+0800
2天前
查看轨道信息
半长轴 7185.163km 7185.166km
偏心率 0.0012515 0.001244
轨道倾角 98.975° 98.975°
近地点辐角 92.215° 98.345°
升交点赤经 312.506° 310.432°
平近点角 268.047° 301.323°
近地点 798.033km 798.09km
远地点 816.019km 815.968km
周期 101.022分钟 101.022分钟
每日圈数 14.254365 14.254357
Detailed Information
使用方式:
暂无
2D Orbit Map
3D Orbit Map
Orbit Altitude Analysis Chart
Orbit Inclination Analysis Chart
Orbit Comprehensive Analysis Chart
View Comprehensive Chart